Location: Krasnoyarskiy Pitomnik
(51.1333°N, 71.6167°E)
Time: 10:16:00
(UTC+00:00)

Spot 2 - Pass Details

Date: 22 October 2021
Orbit: 570 x 773 km, 98.7° (Epoch: 06 December)

Event Time Altitude Azimuth Distance (km) Brightness Sun altitude
Rises 13:22:31 0° 155° (SSE) 2,799 7.2 -12.6°
Reaches altitude 10° 13:24:37 10° 152° (SSE) 1,921 6.3 -12.9°
Maximum altitude 13:28:44 66° 71° (ENE) 673 4.0 -13.5°
Drops below altitude 10° 13:33:06 10° 349° (N) 2,037 6.8 -14.2°
Sets 13:35:23 0° 347° (NNW) 2,985 7.7 -14.6°
